Skip Page Navigation
NASA JPL Caltech
NASA Logo - Jet Propulsion Laboratory + View the NASA Portal
+ Near-Earth Object (NEO) Program
Search JPL
JPL Home Earth Solar System Stars & Galaxies Technology
JPL Solar System Dynamics
BODIES ORBITS EPHEMERIDES TOOLS PHYSICAL DATA DISCOVERY FAQ SITE MAP
JPL Small-Body Database Browser
Search: [ help ]  
246913 Slocum (1998 SU63)
Classification: Main-belt Asteroid          SPK-ID: 2246913
Ephemeris | Orbit Diagram | Orbital Elements | Physical Parameters | Discovery Circumstances ]

[ hide orbit diagram ]
Orbit Diagram
Note: Make sure you have Java enabled on your browser to see the applet. This applet is provided as a 3D orbit visualization tool. The applet was implemented using 2-body methods, and hence should not be used for determining accurate long-term trajectories (over several years or decades) or planetary encounter circumstances. For accurate long-term ephemerides, please instead use our Horizons system.
Orbit Viewer

Additional Notes: the orbits shown in the applet are color coded. The planets are white lines, and the asteroid/comet is a blue line. The bright white line indicates the portion of the orbit that is above the ecliptic plane, and the darker portion is below the ecliptic plane. Likewise for the asteroid/comet orbit, the light blue indicates the portion above the ecliptic plane, and the dark blue the portion below the ecliptic plane.

Orbit Viewer applet originally written and kindly provided by Osamu Ajiki (AstroArts), and further modified by Ron Baalke (JPL).


Orbital Elements at Epoch 2456400.5 (2013-Apr-18.0) TDB
Reference: MPO224338 (heliocentric ecliptic J2000)
 Element Value Uncertainty (1-sigma)   Units 
e 0.2195807 n/a  
a 2.5406717 n/a AU
q 1.9827892 n/a AU
i 12.14954 n/a deg
node 282.16936 n/a deg
peri 95.65160 n/a deg
M 198.89408 n/a deg
tp 2457062.4576949
(2015-Feb-08.95769490)
n/a JED
period 1479.1807163
4.05
n/a
n/a
d
yr
n 0.24337797 n/a deg/d
Q 3.0985542 n/a AU
  Orbit Determination Parameters
   # obs. used (total)      116  
   first obs. used      1998-??-??  
   last obs. used      2012-02-14  
   # oppositions      7  
   planetary ephem.      DE403  
   condition code      1  
   fit RMS      0.64  
   data source      MPC:mpu  
   producer      MPCLINUX  

Additional Information
 T_jup = 3.381 

Ephemeris | Orbit Diagram | Orbital Elements | Physical Parameters | Discovery Circumstances ]

Physical Parameter Table
Parameter Symbol Value Units Sigma Reference Notes
absolute magnitude H 16.5 mag n/a MPC47746  

246913 Slocum           Discovered 1998 Sept. 23 by G. C. L. Aikman at the Dominion Astrophysical Observatory, Victoria.
Joshua Slocum (1844-1909?) was the first person to circumnavigate the world alone. He sailed Spray, his rebuilt sloop, from Boston in April 1895, and returned three years later after a 74000-km journey. His book Sailing Alone Around the World is a first-hand account of his remarkable voyage.
NOTE: some special characters may not display properly (any characters within {} are an attempt to place the proper accent above a character)
Reference: 20120831/MPCPages.arcLast Updated: 2012-09-04

Alternate Designations
 1998 SU63 = 2002 PK61 
Ephemeris | Orbit Diagram | Orbital Elements | Physical Parameters | Discovery Circumstances ]
ABOUT SSD CREDITS/AWARDS PRIVACY/COPYRIGHT GLOSSARY LINKS
FirstGov 2013-May-20 06:31 UT
(server date/time)  
NASA Home Page
Site Manager:   Donald K. Yeomans
Webmaster  Alan B. Chamberlin